Location: Unspecified
(0.0000°N, 0.0000°E)
Time: 18:25:33
(UTC+02:00)

DELTA 2 R/B (1) - Visible Passes

Search period start: 28 July 2014 00:00
Search period end: 07 August 2014 00:00
Orbit: 790 x 805 km, 39.6° (Epoch: 27 July)

Date Brightness Start Highest point End Pass type
(mag) Time Alt. Az. Time Alt. Az. Time Alt. Az.
28 Jul 5.4 21:07:26 10° N 21:10:48 16° NE 21:12:56 13° ENE visible
28 Jul 5.6 22:51:42 10° NW 22:53:44 23° WNW 22:53:44 23° WNW visible
29 Jul 5.5 20:37:17 10° N 20:40:12 14° NE 20:43:07 10° ENE visible
29 Jul 4.4 22:21:06 10° NW 22:25:04 48° NW 22:25:04 48° NW visible
30 Jul 3.4 21:50:31 10° NW 21:56:06 87° NE 21:56:28 79° ESE visible
31 Jul 3.5 21:19:58 10° NW 21:25:32 77° NE 21:27:54 35° ESE visible
01 Aug 3.6 20:49:25 10° NW 20:54:58 68° NE 20:59:23 16° ESE visible
01 Aug 5.8 22:37:45 10° W 22:40:13 17° SW 22:40:13 17° SW visible
02 Aug 5.4 07:42:00 10° SSW 07:46:27 24° SE 07:50:53 10° E visible
02 Aug 5.4 22:06:49 10° W 22:10:47 20° SW 22:11:43 19° SSW visible
03 Aug 5.5 07:11:41 10° S 07:15:51 22° SE 07:20:02 10° E visible
03 Aug 5.4 21:35:55 10° W 21:40:11 22° SW 21:43:14 15° S visible
04 Aug 5.6 06:41:23 10° S 06:45:16 19° SE 06:49:08 10° E visible
04 Aug 5.3 21:05:05 10° W 21:09:36 25° SW 21:14:07 10° SSE visible
05 Aug 5.6 06:12:38 14° SSE 06:14:40 17° SE 06:18:11 10° E visible
05 Aug 5.2 20:34:16 10° W 20:39:00 28° SW 20:43:44 10° SSE visible
06 Aug 5.8 05:44:08 15° SE 05:44:08 15° SE 05:47:10 10° ESE visible
06 Aug 3.6 07:24:58 10° SW 07:30:31 79° NW 07:36:03 10° NE visible
